• In Uzbekistan
  • List of Countries
  • For 7 days
  • Water Temperature
  • Satellite Maps
  • Weather Map
  • Weather Widgets
  • user-avatar
    Login

    Hourly Weather Ordino

    Today, 30 May, Tuesday

    Time Temperature Precipitation Wind Pressure Humidity
    00:00 +6°C° 0 mm 0 mps 632 mmHg 86%
    01:00 +7°C° 0 mm 1 mps 632 mmHg 87%
    02:00 +7°C° 0 mm 1 mps 632 mmHg 88%
    03:00 +6°C° 0 mm 1 mps 632 mmHg 89%
    04:00 +8°C° 0 mm 1 mps 633 mmHg 84%
    05:00 +10°C° 0 mm 1 mps 634 mmHg 79%
    06:00 +12°C° 0 mm 1 mps 635 mmHg 72%
    07:00 +13°C° 0 mm 1 mps 635 mmHg 67%
    08:00 +14°C° 0 mm 1 mps 636 mmHg 61%
    09:00 +16°C° 0 mm 1 mps 636 mmHg 56%
    10:00 +16°C° 0.2 mm 1 mps 637 mmHg 55%
    11:00 +16°C° 0.2 mm 1 mps 637 mmHg 54%
    12:00 +17°C° 0.2 mm 2 mps 637 mmHg 53%
    13:00 +17°C° 0.3 mm 2 mps 637 mmHg 53%
    14:00 +17°C° 0.3 mm 2 mps 636 mmHg 53%
    15:00 +17°C° 0.3 mm 2 mps 636 mmHg 53%
    16:00 +16°C° 0.4 mm 2 mps 636 mmHg 56%
    17:00 +15°C° 0.4 mm 2 mps 636 mmHg 59%
    18:00 +15°C° 0.4 mm 1 mps 636 mmHg 62%
    19:00 +13°C° 0.3 mm 1 mps 635 mmHg 70%
    20:00 +11°C° 0.3 mm 1 mps 635 mmHg 78%
    21:00 +9°C° 0.3 mm 1 mps 635 mmHg 86%
    22:00 +8°C° 0 mm 1 mps 635 mmHg 88%
    23:00 +8°C° 0 mm 1 mps 634 mmHg 89%

    Tomorrow, 31 May, Wednesday

    Time Temperature Precipitation Wind Pressure Humidity
    00:00 +8°C° 0 mm 1 mps 634 mmHg 91%
    01:00 +6°C° 0.1 mm 0 mps 634 mmHg 91%
    02:00 +6°C° 0.1 mm 0 mps 634 mmHg 92%
    03:00 +6°C° 0.1 mm 0 mps 634 mmHg 93%
    04:00 +7°C° 0.1 mm 0 mps 634 mmHg 89%
    05:00 +9°C° 0.1 mm 0 mps 635 mmHg 85%
    06:00 +10°C° 0.1 mm 0 mps 636 mmHg 81%
    07:00 +11°C° 0.1 mm 0 mps 636 mmHg 75%
    08:00 +14°C° 0.1 mm 1 mps 637 mmHg 69%
    09:00 +15°C° 0.1 mm 1 mps 638 mmHg 63%
    10:00 +16°C° 0.5 mm 1 mps 638 mmHg 61%
    11:00 +16°C° 0.5 mm 1 mps 638 mmHg 59%
    12:00 +18°C° 0.5 mm 1 mps 638 mmHg 56%
    13:00 +18°C° 1 mm 1 mps 637 mmHg 59%
    14:00 +18°C° 1 mm 1 mps 637 mmHg 61%
    15:00 +16°C° 1 mm 1 mps 637 mmHg 63%
    16:00 +16°C° 0.6 mm 1 mps 637 mmHg 66%
    17:00 +15°C° 0.6 mm 1 mps 636 mmHg 69%
    18:00 +15°C° 0.6 mm 1 mps 636 mmHg 72%
    19:00 +12°C° 0.1 mm 0 mps 636 mmHg 77%
    20:00 +10°C° 0.1 mm 0 mps 635 mmHg 83%
    21:00 +8°C° 0.1 mm 0 mps 635 mmHg 88%
    22:00 +7°C° 0 mm 0 mps 635 mmHg 88%
    23:00 +7°C° 0 mm 0 mps 634 mmHg 89%

    Day after tomorrow, 1 June, Thursday

    Time Temperature Precipitation Wind Pressure Humidity
    00:00 +6°C° 0 mm 0 mps 634 mmHg 89%
    01:00 +6°C° 0 mm 0 mps 634 mmHg 89%
    02:00 +5°C° 0 mm 0 mps 634 mmHg 89%
    03:00 +5°C° 0 mm 0 mps 633 mmHg 89%
    04:00 +7°C° 0 mm 0 mps 634 mmHg 85%
    05:00 +10°C° 0 mm 0 mps 635 mmHg 80%
    06:00 +12°C° 0 mm 0 mps 636 mmHg 76%
    07:00 +15°C° 0 mm 1 mps 637 mmHg 67%
    08:00 +18°C° 0 mm 1 mps 638 mmHg 58%
    09:00 +20°C° 0 mm 1 mps 639 mmHg 49%
    10:00 +20°C° 0.2 mm 1 mps 639 mmHg 49%
    11:00 +20°C° 0.2 mm 1 mps 639 mmHg 49%
    12:00 +20°C° 0.2 mm 2 mps 639 mmHg 48%
    13:00 +19°C° 0.4 mm 2 mps 638 mmHg 51%
    14:00 +20°C° 0.4 mm 1 mps 638 mmHg 54%
    15:00 +20°C° 0.4 mm 1 mps 638 mmHg 57%
    16:00 +19°C° 0.3 mm 1 mps 637 mmHg 61%
    17:00 +18°C° 0.3 mm 1 mps 637 mmHg 65%
    18:00 +18°C° 0.3 mm 1 mps 637 mmHg 69%
    19:00 +15°C° 0.1 mm 1 mps 636 mmHg 74%
    20:00 +12°C° 0.1 mm 1 mps 636 mmHg 79%
    21:00 +10°C° 0.1 mm 1 mps 635 mmHg 85%
    22:00 +10°C° 0 mm 1 mps 635 mmHg 85%
    23:00 +9°C° 0 mm 1 mps 635 mmHg 85%

    2 June, Friday

    Time Temperature Precipitation Wind Pressure Humidity
    00:00 +9°C° 0 mm 1 mps 634 mmHg 86%
    01:00 +9°C° 0 mm 1 mps 634 mmHg 85%
    02:00 +9°C° 0 mm 1 mps 634 mmHg 85%
    03:00 +9°C° 0 mm 1 mps 634 mmHg 84%
    04:00 +10°C° 0 mm 1 mps 634 mmHg 81%
    05:00 +12°C° 0 mm 1 mps 635 mmHg 77%
    06:00 +14°C° 0 mm 1 mps 636 mmHg 73%
    07:00 +16°C° 0 mm 1 mps 637 mmHg 65%
    08:00 +19°C° 0 mm 1 mps 637 mmHg 58%
    09:00 +20°C° 0 mm 2 mps 638 mmHg 50%
    10:00 +20°C° 0.2 mm 2 mps 638 mmHg 49%
    11:00 +21°C° 0.2 mm 2 mps 638 mmHg 49%
    12:00 +21°C° 0.2 mm 2 mps 638 mmHg 49%
    13:00 +21°C° 0.4 mm 2 mps 638 mmHg 50%
    14:00 +21°C° 0.4 mm 2 mps 637 mmHg 52%
    15:00 +21°C° 0.4 mm 2 mps 637 mmHg 53%
    16:00 +20°C° 0.3 mm 2 mps 637 mmHg 57%
    17:00 +21°C° 0.3 mm 1 mps 636 mmHg 61%
    18:00 +20°C° 0.3 mm 1 mps 636 mmHg 65%
    19:00 +16°C° 0.2 mm 1 mps 635 mmHg 73%
    20:00 +14°C° 0.2 mm 1 mps 635 mmHg 80%
    21:00 +12°C° 0.2 mm 1 mps 634 mmHg 87%
    22:00 +11°C° 0.1 mm 1 mps 634 mmHg 88%
    23:00 +10°C° 0.1 mm 1 mps 634 mmHg 89%

    3 June, Saturday

    Time Temperature Precipitation Wind Pressure Humidity
    00:00 +10°C° 0.1 mm 1 mps 633 mmHg 89%
    01:00 +9°C° 0.1 mm 1 mps 633 mmHg 90%
    02:00 +9°C° 0.1 mm 1 mps 633 mmHg 90%
    03:00 +9°C° 0.1 mm 1 mps 632 mmHg 90%
    04:00 +11°C° 0 mm 1 mps 633 mmHg 86%
    05:00 +12°C° 0 mm 1 mps 634 mmHg 81%
    06:00 +14°C° 0 mm 1 mps 635 mmHg 77%
    07:00 +16°C° 0 mm 1 mps 635 mmHg 68%
    08:00 +18°C° 0 mm 2 mps 636 mmHg 59%
    09:00 +20°C° 0 mm 3 mps 637 mmHg 51%
    10:00 +20°C° 0.1 mm 3 mps 637 mmHg 50%
    11:00 +21°C° 0.1 mm 3 mps 636 mmHg 48%
    12:00 +21°C° 0.1 mm 3 mps 636 mmHg 47%
    13:00 +21°C° 0.4 mm 3 mps 636 mmHg 51%
    14:00 +20°C° 0.4 mm 3 mps 636 mmHg 55%
    15:00 +19°C° 0.4 mm 3 mps 635 mmHg 59%
    16:00 +18°C° 0.4 mm 3 mps 635 mmHg 64%
    17:00 +17°C° 0.4 mm 2 mps 635 mmHg 70%
    18:00 +16°C° 0.4 mm 2 mps 635 mmHg 75%
    19:00 +15°C° 0.8 mm 2 mps 634 mmHg 81%
    20:00 +13°C° 0.8 mm 1 mps 634 mmHg 86%
    21:00 +12°C° 0.8 mm 1 mps 634 mmHg 92%
    22:00 +12°C° 2.3 mm 1 mps 634 mmHg 93%
    23:00 +10°C° 2.3 mm 2 mps 634 mmHg 93%

    4 June, Sunday

    Time Temperature Precipitation Wind Pressure Humidity
    00:00 +10°C° 2.3 mm 2 mps 634 mmHg 94%
    01:00 +10°C° 1.1 mm 2 mps 634 mmHg 95%
    02:00 +9°C° 1.1 mm 2 mps 633 mmHg 95%
    03:00 +8°C° 1.1 mm 2 mps 633 mmHg 96%
    04:00 +9°C° 0.3 mm 2 mps 634 mmHg 95%
    05:00 +9°C° 0.3 mm 2 mps 634 mmHg 93%
    06:00 +9°C° 0.3 mm 2 mps 634 mmHg 92%
    07:00 +10°C° 0.2 mm 2 mps 635 mmHg 88%
    08:00 +10°C° 0.2 mm 2 mps 635 mmHg 85%
    09:00 +12°C° 0.2 mm 2 mps 636 mmHg 81%
    10:00 +13°C° 0.4 mm 2 mps 636 mmHg 79%
    11:00 +13°C° 0.4 mm 2 mps 636 mmHg 76%
    12:00 +14°C° 0.4 mm 2 mps 636 mmHg 74%
    13:00 +14°C° 0.5 mm 2 mps 636 mmHg 74%
    14:00 +14°C° 0.5 mm 2 mps 636 mmHg 74%
    15:00 +15°C° 0.5 mm 2 mps 636 mmHg 74%
    16:00 +14°C° 0.6 mm 2 mps 636 mmHg 77%
    17:00 +13°C° 0.6 mm 2 mps 636 mmHg 81%
    18:00 +12°C° 0.6 mm 2 mps 636 mmHg 85%
    19:00 +10°C° 0.1 mm 2 mps 636 mmHg 88%
    20:00 +10°C° 0.1 mm 1 mps 636 mmHg 90%
    21:00 +9°C° 0.1 mm 1 mps 636 mmHg 93%
    22:00 +8°C° 0 mm 1 mps 635 mmHg 93%
    23:00 +8°C° 0 mm 1 mps 635 mmHg 94%
    Show more